User: anonymous   Login
Location: Unspecified
(0.0000°N, 0.0000°E)
Time: 05:44:49
(UTC+00:00)
Language:

Transit 2A Rocket - Orbit

View from above orbital plane
View from above orbital plane
View from above satellite
View from above satellite

Ground track
Ground track

The orbit data is extracted from the following two-line orbital elements,

1    47U 60007C   19168.85373302 -.00000051  00000-0  13819-4 0  9993
2    47  66.6668  52.5124 0232035 212.3832 146.2856 14.42038205 82401
Epoch (UTC): 17 June 2019 20:29:22
Eccentricity: 0.0232035
inclination: 66.6668°
perigee height: 586 km
apogee height: 917 km
right ascension of ascending node: 52.5124°
argument of perigee: 212.3832°
revolutions per day: 14.42038205
mean anomaly at epoch: 146.2856°
orbit number at epoch: 8240

The dashed part of the orbit path shows where the satellite is in the earth's shadow,  

DLR